Tracking 22993 objects as of 12-May-2021
HD Live streaming from Space Station
objects crossing your sky now

GALS 2

Track GALS 2 now!
GALS 2 is classified as:


NORAD ID: 23717
Int'l Code: 1995-063A
Perigee: 35,867.5 km
Apogee: 35,943.1 km
Inclination: 13.9 °
Period: 1,441.8 minutes
Semi major axis: 42276 km
RCS: 8.9125 m2 (large)
Launch date: November 17, 1995
Source: Commonwealth of Independent States (former USSR) (CIS)
Launch site: TYURATAM MISSILE AND SPACE COMPLEX (TTMTR)
aabbcc
Your satellite tracking list
Your tracking list is empty




NASA's NSSDC Master Catalog

Two Line Element Set (TLE):
1 23717U 95063A   21131.09455462 -.00000037  00000-0  00000-0 0  9997
2 23717  13.8692  16.5631 0008949 335.0434 347.5789  0.99875131 93014
Source of the keplerian elements: AFSPC